Location: Unspecified
(49.8670°N, 0.0000°E)
Time: 06:54:45
(UTC+00:00)

S-56A Canister/Altair - Pass Details

Date: 22 June 2019
Orbit: 633 x 2499 km, 38.9° (Epoch: 13 October)

Event Time Altitude Azimuth Distance (km) Brightness Sun altitude
Rises 13:32:47 0° 191° (S) 5,492 12.3 58.2°
Reaches altitude 10° 13:40:02 10° 164° (SSE) 3,994 11.5 57.4°
Maximum altitude 13:43:00 12° 147° (SSE) 3,636 11.2 57.0°
Drops below altitude 10° 13:45:41 10° 129° (SE) 3,540 11.0 56.7°
Sets 13:50:54 0° 99° (E) 4,062 11.0 56.1°
